TimeEST,TemperatureF,Dew PointF,Humidity,Sea Level PressureIn,VisibilityMPH,Wind Direction,Wind SpeedMPH,Gust SpeedMPH,PrecipitationIn,Events,Conditions,WindDirDegrees,DateUTC
12:15 AM,30.2,27.1,88,29.88,10.0,Calm,Calm,-,N/A,,Overcast,0,2013-03-03 05:15:00
12:35 AM,30.2,26.4,86,29.88,10.0,Calm,Calm,-,N/A,,Overcast,0,2013-03-03 05:35:00
12:55 AM,30.9,26.4,83,29.88,10.0,Calm,Calm,-,N/A,,Overcast,0,2013-03-03 05:55:00
1:15 AM,32.5,26.2,78,29.88,10.0,Calm,Calm,-,N/A,,Overcast,0,2013-03-03 06:15:00
1:35 AM,32.5,25.5,75,29.88,10.0,Calm,Calm,-,N/A,,Overcast,0,2013-03-03 06:35:00
1:55 AM,32.5,25.5,75,29.88,10.0,Calm,Calm,-,N/A,,Overcast,0,2013-03-03 06:55:00
2:15 AM,32.5,25.7,76,29.88,10.0,Calm,Calm,-,N/A,,Overcast,0,2013-03-03 07:15:00
2:35 AM,32.5,26.2,78,29.87,10.0,Calm,Calm,-,N/A,,Overcast,0,2013-03-03 07:35:00
2:55 AM,31.6,25.3,78,29.87,10.0,Calm,Calm,-,N/A,,Overcast,0,2013-03-03 07:55:00
3:15 AM,31.8,26.1,79,29.87,10.0,Calm,Calm,-,N/A,,Overcast,0,2013-03-03 08:15:00
3:35 AM,32.0,26.2,79,29.87,10.0,Calm,Calm,-,N/A,,Overcast,0,2013-03-03 08:35:00
3:55 AM,32.5,26.8,79,29.87,10.0,Calm,Calm,-,N/A,,Overcast,0,2013-03-03 08:55:00
4:15 AM,32.5,26.6,79,29.88,10.0,Calm,Calm,-,N/A,,Overcast,0,2013-03-03 09:15:00
4:35 AM,32.5,27.0,80,29.88,10.0,Calm,Calm,-,N/A,,Overcast,0,2013-03-03 09:35:00
4:55 AM,32.5,27.1,80,29.88,10.0,Calm,Calm,-,N/A,,Overcast,0,2013-03-03 09:55:00
5:15 AM,32.5,27.3,81,29.88,10.0,Calm,Calm,-,N/A,,Overcast,0,2013-03-03 10:15:00
5:35 AM,32.0,27.3,83,29.89,10.0,Calm,Calm,-,N/A,,Overcast,0,2013-03-03 10:35:00
5:55 AM,31.5,27.1,84,29.89,10.0,Calm,Calm,-,N/A,,Overcast,0,2013-03-03 10:55:00
6:15 AM,30.2,25.7,83,29.89,10.0,Calm,Calm,-,N/A,,Scattered Clouds,0,2013-03-03 11:15:00
6:35 AM,30.2,26.2,85,29.90,10.0,Calm,Calm,-,N/A,,Scattered Clouds,0,2013-03-03 11:35:00
6:55 AM,30.2,26.8,87,29.91,10.0,Calm,Calm,-,N/A,,Mostly Cloudy,0,2013-03-03 11:55:00
7:15 AM,30.2,27.0,88,29.91,10.0,Calm,Calm,-,N/A,,Mostly Cloudy,0,2013-03-03 12:15:00
7:35 AM,30.2,27.0,88,29.92,10.0,Calm,Calm,-,N/A,,Overcast,0,2013-03-03 12:35:00
7:55 AM,31.8,27.3,83,29.92,10.0,Calm,Calm,-,N/A,,Overcast,0,2013-03-03 12:55:00
8:15 AM,32.5,26.1,77,29.93,10.0,Calm,Calm,-,N/A,,Overcast,0,2013-03-03 13:15:00
8:35 AM,32.5,24.8,73,29.93,10.0,Calm,Calm,-,N/A,,Overcast,0,2013-03-03 13:35:00
8:55 AM,32.9,24.3,71,29.93,10.0,Calm,Calm,-,N/A,,Overcast,0,2013-03-03 13:55:00
9:15 AM,35.1,23.5,63,29.92,10.0,NNW,3.5,-,N/A,,Overcast,340,2013-03-03 14:15:00
9:35 AM,35.1,22.1,59,29.92,10.0,North,4.6,-,N/A,,Overcast,350,2013-03-03 14:35:00
9:55 AM,35.1,20.5,55,29.91,10.0,North,5.8,-,N/A,,Mostly Cloudy,10,2013-03-03 14:55:00
10:15 AM,36.7,19.4,50,29.91,10.0,NNE,3.5,-,N/A,,Scattered Clouds,30,2013-03-03 15:15:00
10:35 AM,36.5,20.5,52,29.91,10.0,Calm,Calm,-,N/A,,Mostly Cloudy,0,2013-03-03 15:35:00
10:55 AM,36.5,19.2,50,29.91,10.0,North,8.1,-,N/A,,Overcast,360,2013-03-03 15:55:00
11:15 AM,36.5,18.1,47,29.91,10.0,NNW,3.5,-,N/A,,Overcast,340,2013-03-03 16:15:00
11:35 AM,36.5,18.1,47,29.91,10.0,Calm,Calm,-,N/A,,Overcast,0,2013-03-03 16:35:00
11:55 AM,37.2,17.6,45,29.90,10.0,NNW,5.8,-,N/A,,Overcast,340,2013-03-03 16:55:00
12:15 PM,37.6,17.4,44,29.90,10.0,Calm,Calm,-,N/A,,Overcast,0,2013-03-03 17:15:00
12:35 PM,38.3,17.2,43,29.89,10.0,NNW,3.5,-,N/A,,Overcast,330,2013-03-03 17:35:00
12:55 PM,38.7,17.6,43,29.88,10.0,WNW,4.6,-,N/A,,Overcast,290,2013-03-03 17:55:00
1:15 PM,39.0,17.8,42,29.87,10.0,NNW,4.6,-,N/A,,Overcast,330,2013-03-03 18:15:00
1:35 PM,40.1,18.1,41,29.86,10.0,NW,4.6,-,N/A,,Overcast,310,2013-03-03 18:35:00
1:55 PM,39.6,17.8,41,29.85,10.0,NNW,3.5,-,N/A,,Mostly Cloudy,340,2013-03-03 18:55:00
2:15 PM,42.1,19.4,40,29.84,10.0,Calm,Calm,-,N/A,,Scattered Clouds,0,2013-03-03 19:15:00
3:15 PM,42.8,18.9,38,29.83,10.0,Calm,Calm,-,N/A,,Clear,0,2013-03-03 20:15:00
3:35 PM,44.8,20.8,39,29.82,10.0,WNW,3.5,-,N/A,,Scattered Clouds,290,2013-03-03 20:35:00
3:55 PM,45.1,19.4,36,29.82,10.0,NW,4.6,-,N/A,,Scattered Clouds,310,2013-03-03 20:55:00
4:35 PM,45.1,18.5,35,29.82,10.0,WNW,3.5,-,N/A,,Clear,300,2013-03-03 21:35:00
4:55 PM,45.1,19.6,36,29.83,10.0,NW,4.6,-,N/A,,Clear,320,2013-03-03 21:55:00
5:15 PM,45.1,20.1,37,29.83,10.0,West,4.6,-,N/A,,Clear,280,2013-03-03 22:15:00
5:35 PM,42.8,18.9,38,29.84,10.0,Calm,Calm,-,N/A,,Clear,0,2013-03-03 22:35:00
5:55 PM,42.6,20.1,41,29.85,10.0,Calm,Calm,-,N/A,,Clear,0,2013-03-03 22:55:00
6:15 PM,38.3,20.1,48,29.85,10.0,Calm,Calm,-,N/A,,Clear,0,2013-03-03 23:15:00
6:35 PM,36.5,21.2,54,29.86,10.0,Calm,Calm,-,N/A,,Clear,0,2013-03-03 23:35:00
6:55 PM,35.4,21.9,58,29.87,10.0,Calm,Calm,-,N/A,,Scattered Clouds,0,2013-03-03 23:55:00
7:15 PM,35.1,23.0,61,29.87,10.0,Calm,Calm,-,N/A,,Clear,0,2013-03-04 00:15:00
7:35 PM,35.1,24.3,65,29.88,10.0,Calm,Calm,-,N/A,,Clear,0,2013-03-04 00:35:00
7:55 PM,32.7,22.8,67,29.89,10.0,Calm,Calm,-,N/A,,Clear,0,2013-03-04 00:55:00
8:15 PM,36.3,21.2,54,29.89,10.0,Calm,Calm,-,N/A,,Clear,0,2013-03-04 01:15:00
8:35 PM,36.7,19.6,50,29.90,10.0,West,3.5,-,N/A,,Clear,280,2013-03-04 01:35:00
8:55 PM,36.5,19.4,50,29.91,10.0,Calm,Calm,-,N/A,,Clear,0,2013-03-04 01:55:00
9:15 PM,35.2,19.4,53,29.92,10.0,Calm,Calm,-,N/A,,Clear,0,2013-03-04 02:15:00
9:35 PM,35.1,18.1,50,29.93,10.0,West,5.8,-,N/A,,Clear,280,2013-03-04 02:35:00
9:55 PM,35.1,17.8,49,29.93,10.0,Calm,Calm,-,N/A,,Clear,0,2013-03-04 02:55:00
10:15 PM,35.1,19.6,53,29.93,10.0,Calm,Calm,-,N/A,,Clear,0,2013-03-04 03:15:00
10:35 PM,34.0,18.1,52,29.93,10.0,WNW,3.5,-,N/A,,Clear,300,2013-03-04 03:35:00
10:55 PM,32.5,17.2,53,29.93,10.0,WNW,3.5,-,N/A,,Clear,290,2013-03-04 03:55:00
11:15 PM,32.5,17.6,54,29.94,10.0,West,3.5,-,N/A,,Clear,270,2013-03-04 04:15:00
11:35 PM,32.5,17.6,54,29.94,10.0,WNW,3.5,-,N/A,,Clear,290,2013-03-04 04:35:00
11:55 PM,32.5,18.0,55,29.94,10.0,Calm,Calm,-,N/A,,Clear,0,2013-03-04 04:55:00